Retour au catalogue

STARLINK-31660

ActifCommunicationsVLEO
NORAD 59642·PAYLOAD·🇺🇸 United States

Lancé May 3, 2024 depuis Cape Canaveral Space Force Station

Loading…

Prochains Passages (prochaines 24 heures)

TLE

FraisSource: CelesTrak SupGP

Époque: Sep 15, 2026, 02:21 UTC

1 59642C 24082M   26258.09840278  .00049077  00000+0  17773-2 0  2584
2 59642  42.9997 109.7542 0001372 276.2418 231.3419 15.27559492    12

Suivez STARLINK-31660 en temps réel avec AllMySat

Download on the App Store